Miscellaneous Local Product
Issued by NWS North Platte, NE

Home | Current Version | Previous Version | Graphics & Text | Print | Product List | Glossary On
Versions: 1 2 3 4 5 6 7 8 9 10 11 12 13 14 15 16 17 18 19 20 21 22 23 24 25 26 27 28 29 30 31 32 33 34 35 36 37 38 39 40 41 42 43 44 45 46 47 48 49 50
000
AXUS43 KLBF 292010
MISLBF


WESTERN AND NORTH CENTRAL NEBRASKA HOURLY WEATHER ROUNDUP
NATIONAL WEATHER SERVICE NORTH PLATTE NE
300 PM CDT SAT APR 29 2017

NOTE: "FAIR" INDICATES FEW OR NO CLOUDS BELOW 12,000 FEET WITH NO
SIGNIFICANT WEATHER AND/OR OBSTRUCTIONS TO VISIBILITY.

NOTE: STATIONS NOT REPORTING VARIABLES SUCH AS SKY/WEATHER OR
PRESSURE ARE PROVIDED BY RAWS AND APRS NETWORKS AND ARE NOT UNDER
NATIONAL WEATHER SERVICE QUALITY CONTROL.

...OBSERVATIONS IN AND NEAR THE EASTERN PANHANDLE OF NEBRASKA...

CITY           SKY/WX    TMP DP  RH WIND       PRES   REMARKS
PINE RIDGE     MOSUNNY   52  21  29 NE12      30.21F
CHADRON        SUNNY     49  24  37 N10       30.23F
ALLIANCE       CLOUDY    47  20  34 N17G28    30.17F
SIDNEY         CLOUDY    43  23  45 N23G31    30.16S
CRESCENT LAKE    N/A     46  18  32 NE17G26     N/A
$$

...OBSERVATIONS IN NORTHERN NEBRASKA AND FAR SOUTHERN SOUTH DAKOTA...

CITY           SKY/WX    TMP DP  RH WIND       PRES   REMARKS
WINNER         FAIR      55  18  23 E17       30.24F
VALENTINE      CLOUDY    53  11  18 NE18G26   30.22R
THEDFORD       CLOUDY    50  21  32 NE18G29   30.17F
AINSWORTH      MOSUNNY   50  23  35 NE23G29   30.19F
O`NEILL        CLOUDY    51  24  35 NE22      30.19F
ORD            LGT RAIN  45  28  51 NE18G29   30.13F
BROKEN BOW     LGT RAIN  46  29  51 NE25G32   30.13F
VALENTINE NWR    N/A     49  17  27 NE13G23     N/A
HALSEY           N/A     46  17  31 NE9G20      N/A
BUTTE            N/A     51  24  35 N22G32      N/A
CHAMBERS         N/A     50  27  40 NE10        N/A
EWING            N/A     48  31  51 NE10G17     N/A
$$

...OBSERVATIONS IN SOUTHWEST NEBRASKA AND FAR NORTHEAST COLORADO...

CITY           SKY/WX    TMP DP  RH WIND       PRES   REMARKS
HOLYOKE        FAIR      45  27  49 NE22G30   30.14S
IMPERIAL       CLOUDY    44  24  45 NE23G37   30.11F
OGALLALA       CLOUDY    48  20  33 N23G30    30.14S
NORTH PLATTE   CLOUDY    47  25  42 NE20G25   30.13F
MCCOOK         LGT RAIN  40  35  83 N18G31    30.08F WCI  31
LEXINGTON      LGT RAIN  40  34  77 N18G26    30.09F WCI  31
STAPLETON        N/A     45  26  46 E6G22       N/A
GOTHENBURG       N/A     41  28  58 N15         N/A
CALLAWAY         N/A     41  32  69 NE20        N/A
$$

...OBSERVATIONS IN CENTRAL LINCOLN COUNTY AREA...

CITY           SKY/WX    TMP DP  RH WIND       PRES   REMARKS
N.P. AIRPORT   CLOUDY    47  25  42 NE20G25   30.13F
N.P. DOWNTOWN    N/A     44  25  46 NE17G26     N/A
N.P. SOUTHEAST   N/A     45  25  45 NE10G21     N/A
N.P. HILLCREST   N/A     45  24  43 NE23G35     N/A
$$

...SOME OBSERVATIONS FROM AROUND THE REGION...

CITY           SKY/WX    TMP DP  RH WIND       PRES   REMARKS
DENVER         LGT SNOW  31  26  82 N18       30.16S VSB 3/4 WCI  19
LIMON          LGT SNOW  29  26  89 N31G37    30.09R FOG     WCI  13
ASPEN          LGT SNOW  34  24  67 N9        30.03S WCI  27
LARAMIE        CLOUDY    27   9  46 NE8       30.16F WCI  19
CASPER         SUNNY     42  15  33 E8        30.24F
CHEYENNE       CLOUDY    32  17  54 N17       30.16F WCI  21
SCOTTSBLUFF    PTSUNNY   43  23  45 N20G25    30.22F
GRAND ISLAND   CLOUDY    45  33  63 N26G37    30.04F
OMAHA          CLOUDY    46  38  73 NE23G39   30.00F
SIOUX FALLS    CLOUDY    53  24  32 NE20G30   30.23F
PIERRE         MOSUNNY   58  15  18 NE12      30.25S
RAPID CITY     MOSUNNY   51  18  27 NE8       30.24F
BISMARCK       SUNNY     61  18  18 VRB6      30.26S
KANSAS CITY    LGT RAIN  48  46  93 NE25G33   29.79F
HILL CITY      LGT RAIN  40  37  89 N31G39    29.98F FOG     WCI  28
WICHITA        CLOUDY    47  46  97 N16G28    29.74F FOG
DODGE CITY     RAIN      40  38  93 N31G40    29.85F FOG     WCI  28
OKLAHOMA CITY  LGT RAIN  52  51  97 NW16      29.66F
DALLAS         PTSUNNY   91  70  49 S22G32    29.51F HX  96
AMARILLO       LGT SNOW  37  36  96 N20G25    29.89R FOG     WCI  27
$$




USA.gov is the U.S. government's official web portal to all federal, state and local government web resources and services.